Home > Weather > Bad Mergentheim > Past weeks

Flag for Germany Past Weather in Bad Mergentheim, Baden-Württemberg, Germany — Yesterday and Last 2 Weeks

Now
63 °F

Passing clouds.


Feels Like: 63 °F
Forecast: 53 / 67 °F
Wind: 7 mph from Southeast

Location: Niederstetten

Current Time: Jul 2, 2016 at 12:44:42 AM

Latest Report: Jul 1, 2016 at 11:20 PM


Visibility: N/A

Pressure: 30.01 "Hg

Humidity: 83%

Dew Point: 57 °F

Location of Bad MergentheimLocation

Past Weather in Bad Mergentheim — Graph

°F

Bad Mergentheim Temperature Yesterday

Maximum temperature yesterday: 75 °F (at 3:20 PM)
Minimum temperature yesterday: 59 °F (at 2:20 AM)
Average temperature yesterday: 67 °F

High & Low Weather Summary for the Past Weeks

 TemperatureHumidityPressure
High88 °F (Jun 23, 5:00 PM)100% (Jun 17, 2:20 AM)30.27 "Hg (Jun 17, 2:20 AM)
Low46 °F (Jun 20, 3:20 AM)40% (Jun 24, 5:20 PM)29.62 "Hg (Jun 16, 11:20 PM)
Average64 °F74%30.08 "Hg
* Reported Jun 16 11:20 PM — Jul 1 11:20 PM, Bad Mergentheim, Weather by CustomWeather, © 2016

Note: Actual official high and low records may vary slightly from our data, if they occured in-between our weather recording intervals... More about our weather records

Advertising

Bad Mergentheim Weather History for the Previous 24 Hours

Scroll right to see more
 ConditionsComfort  
Time TempWeatherWind HumidityBarometerVisibility
11:20 PM
Fri, Jul 1
63 °FPassing clouds.7 mph83%30.01 "HgN/A
10:20 PM64 °FPassing clouds.2 mph78%30.01 "HgN/A
9:20 PM70 °FPassing clouds.3 mph64%30.01 "HgN/A
8:20 PM73 °FPassing clouds.5 mph57%30.01 "HgN/A
7:20 PM73 °FScattered clouds.7 mph53%30.01 "HgN/A
6:20 PM75 °FPassing clouds.7 mph54%30.01 "HgN/A
5:20 PM73 °FPassing clouds.8 mph53%30.04 "HgN/A
4:20 PM75 °FPassing clouds.10 mph50%30.04 "HgN/A
3:20 PM75 °FPassing clouds.12 mph50%30.04 "HgN/A
2:20 PM72 °FPassing clouds.10 mph57%30.07 "HgN/A
1:20 PM72 °FScattered clouds.12 mph57%30.07 "HgN/A
12:20 PM70 °FScattered clouds.10 mph60%30.09 "HgN/A
11:20 AM70 °FScattered clouds.10 mph60%30.07 "HgN/A
10:20 AM68 °FPassing clouds.9 mph69%30.07 "HgN/A
9:20 AM66 °FPartly sunny.10 mph73%30.07 "HgN/A
8:20 AM66 °FBroken clouds.6 mph78%30.07 "HgN/A
7:20 AM63 °FPartly sunny.3 mph83%30.07 "HgN/A
6:20 AM61 °FBroken clouds.6 mph88%30.07 "HgN/A
5:20 AM61 °FPartly cloudy.5 mph83%30.07 "HgN/A
4:20 AM59 °FPassing clouds.5 mph88%30.04 "HgN/A
3:20 AM59 °FPassing clouds.6 mph88%30.04 "HgN/A
2:20 AM59 °FPassing clouds.5 mph88%30.07 "HgN/A
1:20 AM61 °FPassing clouds.6 mph83%30.07 "HgN/A
12:20 AM63 °FPassing clouds.2 mph83%30.07 "HgN/A
Weather by CustomWeather, © 2016

See weather overviewHow to use our weather pages